Content
SEND FEEDBACK

Daily
Averages
Monthly
Summary
United States of America

BROOKVILLE, PENNSYLVANIA


Home > North America > United States > Pennsylvania
Elevation: 140 feet     Latitude: 41 09N     Longitude: 079 06W

WEATHER
 
SELECT A DAY
Number of Records: 298,391;   Date Range: 1/1/95 - 12/21/14
 
SHARE

PRINT THIS DATA

[ ← Previous Day ]
WEATHER ALMANAC - JANUARY 31, 2013
[ Next Day → ]
[ °C ]   °F
Weather ElementAverageHighLow
Temperature23.2 °F44.1 °F (12:56 am)17.1 °F (11:56 pm)
Dewpoint17.2 °F39.9 °F (12:56 am)6.8 °F (3:24 pm)
Humidity78.2 %93 % (1:45 am)58 % (3:24 pm)
Barometer29.54 in29.80 in (10:56 pm)29.17 in (12:56 am)
Wind Speed22.1 mph35.7 mph (11:28 am)
Wind Gust49.5 mph (11:40 am)
Weather ElementAverage
Visibility3 mi
Wind DirectionWSW (258.7 °)

Weather ElementTotal
Precipitation0.23 in
Heating Degree Days34.4 (Base 65)
Averaged from 105 records on January 31, 2013
WEATHER CONDITIONS BREAKOUT
WIND DIRECTION BREAKOUT
WEATHER BY HOUR - JANUARY 31, 2013
[ °C ]   °F
Local TimeTemperatureDewpointHumidityBarometerVisibilityWind DirectionWind SpeedGust SpeedPrecipitationEventsConditions
12:56 AM44.1 °F39.9 °F85 %29.17 in10.0 miSW (220°)18.4 mph26.5 mph0.06 inOvercast
1:45 AM37.4 °F35.6 °F93 %29.19 in3.0 miWest (260°)27.6 mph41.4 mph0.03 inRainLight Rain
1:56 AM37.0 °F34.0 °F89 %29.19 in6.0 miWest (260°)27.6 mph36.8 mph0.03 inOvercast
2:09 AM37.4 °F33.8 °F87 %29.22 in9.0 miWSW (250°)24.2 mph40.3 mph0.00 inOvercast
2:18 AM35.6 °F33.8 °F93 %29.20 in10.0 miWest (260°)23.0 mph34.5 mph0.00 inOvercast
2:52 AM33.8 °F30.2 °F87 %29.22 in2.0 miWest (260°)18.4 mph31.1 mph0.00 inSnowLight Snow
2:56 AM33.1 °F30.9 °F92 %29.24 in1.2 miWest (260°)21.9 mph29.9 mph0.00 inSnowLight Snow
3:00 AM33.8 °F30.2 °F87 %29.24 in0.8 miWest (270°)17.3 mph29.9 mph0.01 inSnowLight Snow
3:08 AM32.0 °F30.2 °F93 %29.24 in0.5 miWest (270°)24.2 mph34.5 mph0.02 inFog-SnowLight Snow
3:23 AM32.0 °F30.2 °F93 %29.26 in2.0 miWest (260°)20.7 mph31.1 mph0.02 inSnowLight Snow
3:31 AM32.0 °F28.4 °F87 %29.26 in7.0 miWSW (250°)21.9 mph32.2 mph0.02 inOvercast
3:40 AM32.0 °F28.4 °F87 %29.26 in10.0 miWSW (250°)21.9 mph33.4 mph0.02 inOvercast
3:56 AM30.9 °F27.0 °F85 %29.29 in10.0 miWest (260°)21.9 mph35.7 mph0.02 inOvercast
4:56 AM30.0 °F24.1 °F79 %29.32 in10.0 miWest (260°)31.1 mph43.7 mphOvercast
5:17 AM30.2 °F21.2 °F69 %29.30 in10.0 miWest (260°)21.9 mph41.4 mphOvercast
5:56 AM28.9 °F21.9 °F75 %29.35 in10.0 miWest (270°)29.9 mph36.8 mphOvercast
6:47 AM28.4 °F21.2 °F74 %29.38 in2.0 miWest (270°)24.2 mph34.5 mph0.00 inSnowLight Snow
6:52 AM26.6 °F21.2 °F80 %29.39 in0.8 miWest (280°)23.0 mph33.4 mph0.00 inSnowLight Snow
6:56 AM26.1 °F23.0 °F88 %29.41 in0.5 miWest (280°)24.2 mph31.1 mph0.00 inFog-SnowSnow
7:08 AM26.6 °F23.0 °F86 %29.39 in2.0 miWest (260°)16.1 mph29.9 mph0.00 inSnowLight Snow
7:19 AM26.6 °F23.0 °F86 %29.40 in1.8 miWest (270°)13.8 mph0.00 inSnowLight Snow
7:26 AM26.6 °F23.0 °F86 %29.41 in0.8 miWest (270°)17.3 mph29.9 mph0.00 inSnowLight Snow
7:34 AM26.6 °F21.2 °F80 %29.41 in2.0 miWest (260°)21.9 mph29.9 mph0.00 inSnowLight Snow
7:43 AM26.6 °F21.2 °F80 %29.42 in3.0 miWest (260°)24.2 mph33.4 mph0.00 inSnowLight Snow
7:56 AM26.1 °F19.0 °F75 %29.45 in3.0 miWSW (250°)28.8 mph48.3 mph0.00 inSnowLight Snow
8:04 AM26.6 °F19.4 °F74 %29.43 in5.0 miWest (260°)24.2 mph44.9 mph0.00 inHaze
8:40 AM26.6 °F17.6 °F69 %29.45 in1.5 miWest (260°)25.3 mph35.7 mph0.00 inSnowLight Snow
8:45 AM24.8 °F19.4 °F80 %29.46 in0.2 miWest (260°)23.0 mph35.7 mph0.00 inSnowHeavy Snow
8:56 AM25.0 °F21.0 °F85 %29.50 in0.5 miWest (270°)21.9 mph34.5 mph0.00 inFog-SnowLight Snow
9:01 AM24.8 °F21.2 °F86 %29.47 in2.0 miWest (260°)19.6 mph31.1 mph0.00 inSnowLight Snow
9:09 AM24.8 °F21.2 °F86 %29.47 in4.0 miWSW (250°)26.5 mph38.0 mph0.00 inSnowLight Snow
9:16 AM24.8 °F19.4 °F80 %29.47 in6.0 miWest (260°)19.6 mph38.0 mph0.00 inSnowLight Snow
9:39 AM24.8 °F17.6 °F74 %29.48 in1.8 miWest (260°)24.2 mph40.3 mph0.00 inSnowLight Snow
9:49 AM24.8 °F19.4 °F80 %29.48 in2.5 miWest (260°)29.9 mph43.7 mph0.00 inSnowLight Snow
9:56 AM24.1 °F18.0 °F77 %29.52 in0.8 miWest (260°)26.5 mph41.4 mph0.00 inSnowLight Snow
10:12 AM24.8 °F15.8 °F69 %29.48 in2.0 miWest (260°)28.8 mph39.1 mph0.00 inSnowLight Snow
10:21 AM23.0 °F15.8 °F74 %29.49 in0.8 miWest (280°)29.9 mph41.4 mph0.00 inSnowLight Snow
10:30 AM21.2 °F17.6 °F86 %29.50 in0.2 miWest (260°)26.5 mph40.3 mph0.00 inFog-SnowLight Snow
10:43 AM23.0 °F15.8 °F74 %29.51 in0.8 miWest (270°)24.2 mph40.3 mph0.00 inSnowLight Snow
10:51 AM23.0 °F15.8 °F74 %29.51 in1.0 miWest (260°)20.7 mph35.7 mph0.00 inSnowLight Snow
10:56 AM21.9 °F17.1 °F82 %29.55 in0.2 miWest (260°)27.6 mph35.7 mph0.00 inSnowHeavy Snow
11:19 AM21.2 °F15.8 °F80 %29.52 in1.0 miWest (270°)28.8 mph36.8 mph0.00 inSnowLight Snow
11:28 AM23.0 °F12.2 °F63 %29.52 in3.0 miWSW (250°)35.7 mph47.2 mph0.00 inHaze
11:40 AM23.0 °F12.2 °F63 %29.53 in10.0 miWSW (250°)33.4 mph49.5 mph0.00 inOvercast
11:51 AM21.2 °F14.0 °F74 %29.54 in1.8 miWest (260°)25.3 mph38.0 mph0.00 inSnowLight Snow
11:56 AM21.9 °F16.0 °F78 %29.59 in0.5 miWSW (250°)20.7 mph38.0 mph0.00 inSnowSnow
12:04 PM21.2 °F17.6 °F86 %29.55 in0.2 miWest (260°)26.5 mph38.0 mph0.00 inFog-SnowSnow
12:14 PM21.2 °F14.0 °F74 %29.54 in0.5 miWest (260°)21.9 mph34.5 mph0.00 inSnowSnow
12:18 PM21.2 °F12.2 °F68 %29.54 in1.0 miWest (260°)25.3 mph35.7 mph0.00 inSnowLight Snow
12:21 PM21.2 °F10.4 °F63 %29.54 in4.0 miWest (260°)26.5 mph43.7 mph0.00 inHaze
12:46 PM19.4 °F14.0 °F80 %29.55 in0.2 miWest (260°)25.3 mph40.3 mph0.00 inSnowHeavy Snow
12:53 PM19.4 °F15.8 °F86 %29.56 in0.2 miWest (260°)20.7 mph34.5 mph0.00 inSnowHeavy Snow
12:56 PM19.9 °F15.1 °F81 %29.61 in0.2 miWest (260°)20.7 mph34.5 mph0.00 inSnowHeavy Snow
1:09 PM21.2 °F14.0 °F74 %29.56 in0.8 miWSW (250°)28.8 mph41.4 mph0.00 inSnowLight Snow
1:13 PM21.2 °F14.0 °F74 %29.56 in2.0 miWSW (250°)26.5 mph41.4 mph0.00 inHaze
1:22 PM21.2 °F12.2 °F68 %29.56 in5.0 miWSW (250°)21.9 mph39.1 mph0.00 inHaze
1:28 PM21.2 °F12.2 °F68 %29.56 in1.8 miWest (260°)21.9 mph34.5 mph0.00 inSnowLight Snow
1:37 PM21.2 °F15.8 °F80 %29.56 in0.5 miWSW (250°)24.2 mph34.5 mph0.00 inSnowSnow
1:45 PM21.2 °F14.0 °F74 %29.56 in2.0 miWest (260°)21.9 mph33.4 mph0.00 inSnowLight Snow
1:49 PM21.2 °F14.0 °F74 %29.56 in3.0 miWest (260°)24.2 mph33.4 mph0.00 inHaze
1:56 PM21.9 °F14.0 °F72 %29.61 in4.0 miWest (260°)24.2 mph34.5 mph0.00 inHaze
2:07 PM21.2 °F15.8 °F80 %29.56 in1.8 miWSW (240°)19.6 mph33.4 mph0.00 inSnowLight Snow
2:18 PM21.2 °F15.8 °F80 %29.56 in2.0 miWSW (240°)23.0 mph35.7 mph0.00 inSnowLight Snow
2:26 PM21.2 °F15.8 °F80 %29.56 in0.8 miWSW (250°)25.3 mph35.7 mph0.00 inSnowLight Snow
2:32 PM21.2 °F17.6 °F86 %29.57 in0.2 miWSW (250°)21.9 mph35.7 mph0.00 inFog-SnowSnow
2:44 PM21.2 °F15.8 °F80 %29.58 in0.2 miWest (260°)23.0 mph38.0 mph0.00 inSnowHeavy Snow
2:54 PM19.4 °F15.8 °F86 %29.59 in0.2 miWest (260°)31.1 mph46.0 mph0.00 inFog-SnowSnow
3:08 PM19.4 °F10.4 °F68 %29.60 in0.2 miWest (260°)26.5 mph44.9 mph0.00 inSnowHeavy Snow
3:16 PM19.4 °F8.6 °F63 %29.60 in0.2 miWest (260°)24.2 mph40.3 mph0.00 inSnowHeavy Snow
3:24 PM19.4 °F6.8 °F58 %29.61 in1.0 miWest (260°)29.9 mph47.2 mph0.00 inSnowLight Snow
3:36 PM19.4 °F6.8 °F58 %29.61 in3.0 miWest (260°)26.5 mph44.9 mph0.00 inHaze
3:56 PM19.9 °F8.1 °F60 %29.69 in10.0 miWest (260°)19.6 mph29.9 mph0.00 inOvercast
4:09 PM19.4 °F10.4 °F68 %29.63 in2.5 miWest (260°)24.2 mph32.2 mph0.00 inSnowLight Snow
4:18 PM19.4 °F8.6 °F63 %29.63 in4.0 miWest (260°)20.7 mph35.7 mph0.00 inSnowLight Snow
4:56 PM19.0 °F10.9 °F71 %29.72 in9.0 miWest (260°)21.9 mph36.8 mph0.00 inOvercast
5:04 PM19.4 °F10.4 °F68 %29.66 in1.8 miWSW (250°)26.5 mph35.7 mph0.00 inSnowLight Snow
5:16 PM19.4 °F10.4 °F68 %29.67 in2.5 miWest (260°)25.3 mph34.5 mph0.00 inSnowLight Snow
5:23 PM19.4 °F10.4 °F68 %29.67 in9.0 miWest (260°)19.6 mph34.5 mph0.00 inOvercast
5:32 PM19.4 °F10.4 °F68 %29.67 in1.8 miWest (270°)26.5 mph35.7 mph0.00 inSnowLight Snow
5:44 PM17.6 °F10.4 °F73 %29.67 in3.0 miWest (260°)17.3 mph24.2 mph0.00 inSnowLight Snow
5:56 PM19.0 °F10.9 °F71 %29.75 in7.0 miWest (260°)15.0 mph27.6 mph0.00 inOvercast
6:56 PM19.0 °F12.0 °F74 %29.76 in5.0 miWSW (250°)13.8 mph23.0 mph0.00 inSnowLight Snow
7:04 PM19.4 °F12.2 °F74 %29.69 in2.5 miWSW (240°)13.8 mph0.00 inSnowLight Snow
7:24 PM19.4 °F14.0 °F80 %29.70 in3.0 miWest (260°)13.8 mph20.7 mph0.00 inSnowLight Snow
7:38 PM19.4 °F14.0 °F80 %29.69 in2.5 miWSW (240°)13.8 mph0.00 inSnowLight Snow
7:47 PM17.6 °F14.0 °F86 %29.69 in1.8 miWSW (250°)11.5 mph20.7 mph0.00 inSnowLight Snow
7:50 PM17.6 °F14.0 °F86 %29.69 in3.0 miWSW (250°)11.5 mph0.00 inSnowLight Snow
7:56 PM18.0 °F14.0 °F84 %29.77 in1.5 miWest (260°)16.1 mph20.7 mph0.00 inSnowLight Snow
8:13 PM17.6 °F15.8 °F93 %29.69 in3.0 miWSW (250°)9.2 mph0.00 inSnowLight Snow
8:29 PM19.4 °F14.0 °F80 %29.69 in1.8 miWSW (250°)17.3 mph23.0 mph0.00 inSnowLight Snow
8:47 PM19.4 °F15.8 °F86 %29.69 in3.0 miWSW (240°)16.1 mph24.2 mph0.00 inSnowLight Snow
9:03 PM19.4 °F15.8 °F86 %29.69 in1.2 miSW (230°)16.1 mph0.00 inSnowLight Snow
9:10 PM19.4 °F15.8 °F86 %29.69 in3.0 miWSW (250°)20.7 mph24.2 mph0.00 inSnowLight Snow
9:21 PM19.4 °F14.0 °F80 %29.69 in1.8 miWSW (250°)21.9 mph33.4 mph0.00 inSnowLight Snow
9:30 PM19.4 °F12.2 °F74 %29.69 in3.0 miWest (260°)23.0 mph31.1 mph0.00 inHaze
9:37 PM19.4 °F12.2 °F74 %29.70 in2.0 miWest (260°)20.7 mph33.4 mph0.00 inHaze
9:56 PM19.9 °F12.0 °F71 %29.77 in4.0 miWest (260°)16.1 mph31.1 mph0.00 inHaze
10:12 PM19.4 °F14.0 °F80 %29.71 in1.5 miWest (280°)13.8 mph0.00 inSnowLight Snow
10:17 PM19.4 °F15.8 °F86 %29.71 in0.2 miWest (270°)16.1 mph25.3 mph0.00 inFog-SnowHeavy Snow
10:26 PM17.6 °F14.0 °F86 %29.72 in0.5 miWest (280°)17.3 mph27.6 mph0.00 inFog-SnowLight Snow
10:29 PM17.6 °F14.0 °F86 %29.72 in1.0 miWest (270°)17.3 mph27.6 mph0.00 inSnowLight Snow
10:38 PM17.6 °F12.2 °F79 %29.72 in3.0 miWest (270°)17.3 mph28.8 mph0.00 inSnowLight Snow
10:45 PM17.6 °F12.2 °F79 %29.72 in4.0 miWest (270°)17.3 mph24.2 mph0.00 inHaze
10:56 PM18.0 °F12.9 °F81 %29.80 in3.0 miWest (270°)17.3 mph24.2 mph0.00 inHaze
11:56 PM17.1 °F10.0 °F74 %29.80 in10.0 miWest (260°)13.8 mphScattered Clouds
Hourly data recorded from KDUJ, located miles away from Brookville, Pennsylvania







STORIES FROM OUR PARTNERS